sat.trackr.live / text

‹ back to catalog

STARLINK-35462

NORAD 65877 · 2025-223Z

PAYLOAD ACTIVE UNKNOWN

§ Identity

Operator
Country
US
Launch date
2025-10-03
Launch site
AFWTR
Launch vehicle
Mass (kg)
RCS (m²)

Purposes: comms

External: N2YO · Heavens-Above · Gunter

§ Orbital elements

Epoch: 2026-09-20T22:21:09.180864Z

Period
93.85 min
Inclination
53.1556°
Eccentricity
0.0002410
Mean motion
15.34410703 rev/d
Perigee alt
461.0 km
Apogee alt
464.3 km
Semi-major
6,840.8 km
B*
3.9243e-4
RAAN
105.4747°
Arg perigee
70.3533°
Mean anomaly
289.7729°
Rev number
5,412

§ Raw data

STARLINK-354621 65877U 25223Z   26263.93135626  .00012910  00000+0  39243-3 0  99972 65877  53.1556 105.4747 0002410  70.3533 289.7729 15.34410703 54120

JSON: /api/v1/satellites/65877 · /tle

For live sub-satellite position, see the globe view (requires WebGL).

§ Visibility from observer

Set your observer location to see the next 7 days of passes ≥ 10°. The values pass through the URL so the page stays shareable.

No JS? Fill the form by hand. The geolocation button needs JavaScript.